Regional Weather Roundup
Issued by NWS

Home | Current Version | Previous Version | Graphics & Text | Print | Product List | Glossary On
Versions: 1 2 3 4 5 6 7 8 9 10 11 12 13 14 15 16 17 18 19 20 21 22 23 24 25 26 27 28 29 30 31 32 33 34 35 36 37 38 39 40 41 42 43 44 45 46 47 48 49 50
000
ASUS43 KIND 280759
RWRIN

WEATHER ROUNDUP FOR INDIANA
NATIONAL WEATHER SERVICE INDIANAPOLIS IN
300 AM EST SAT FEB 28 2015

NOTE: "FAIR" INDICATES FEW OR NO CLOUDS BELOW 12,000 FEET WITH NO
SIGNIFICANT WEATHER AND/OR OBSTRUCTIONS TO VISIBILITY.

* - STATION DOES NOT REPORT WEATHER SUCH AS PRECIPITATION OR FOG.

+ - STATION NOT QUALITY CONTROLLED BY THE NATIONAL WEATHER SERVICE.
    USE DATA WITH CAUTION...ESPECIALLY DEWPOINT AND RELATIVE
    HUMIDITY OBSERVATIONS.

INZ001>003-010>013-019-020-280900-
NORTHWEST INDIANA

CITY           SKY/WX    TMP DP  RH WIND       PRES   REMARKS
VALPARAISO     NOT AVBL

$$

LMZ046-743>745-280900-
SOUTHERN LAKE MICHIGAN

STATION/POSITION TIME  TEMP WIND        PRES
                       AIR  DIR/SP/G
                 (UTC) (F)  (DEG/KT/KT) (MB)
MICHIGAN CITY    0700    4  170/  6/  7   N/A

$$

INZ004-005-014>016-021>024-280900-
NORTH CENTRAL INDIANA

CITY           SKY/WX    TMP DP  RH WIND       PRES   REMARKS
GOSHEN         MOCLDY    -6 -13  71 CALM      30.67S HAZE
PERU/GRISSOM   PTCLDY     0  -6  78 NE2       30.66F HAZE
SOUTH BEND     PTCLDY    -1  -8  72 SW3       30.68S

$$

INZ006>009-017-018-025>027-280900-
NORTHEAST INDIANA

CITY           SKY/WX    TMP DP  RH WIND       PRES   REMARKS
ANGOLA *+      CLEAR     -8 -13  77 CALM      30.66R
FORT WAYNE     PTCLDY     1  -3  83 CALM      30.68S

$$

INZ028-029-035-036-043>045-051>053-280900-
WEST CENTRAL INDIANA

CITY           SKY/WX    TMP DP  RH WIND       PRES   REMARKS
CRAWFORDSVL +  PTCLDY    -4 -11  70 CALM      30.67R
GREENCASTLE +  PTCLDY     5  -6  61 CALM      30.66S
LAFAYETTE      PTCLDY     1  -5  75 CALM      30.69S
TERRE HAUTE    MOCLDY     6  -1  73 CALM      30.67S

$$

INZ030>032-037>040-046>048-054>057-064-065-280900-
CENTRAL INDIANA

CITY           SKY/WX    TMP DP  RH WIND       PRES   REMARKS
GREENWOOD *+   PTCLDY     9  -2  61 E3        30.67R
INDIANAPOLIS   MOCLDY     7   0  73 NE7       30.65S WCI  -5
-EAGLE CREEK   PTCLDY     7  -1  70 NE3       30.66S
KOKOMO *+      PTCLDY    -2  -6  84 CALM      30.67S
MT COMFORT *+  PTCLDY    -2 -11  65 CALM      30.66S
SHELBYVILLE    PTCLDY     3  -4  72 NE6       30.66S WCI  -8

$$

INZ033-034-041-042-049-050-058-059-280900-
EAST CENTRAL INDIANA

CITY           SKY/WX    TMP DP  RH WIND       PRES   REMARKS
MUNCIE         MOCLDY    -2  -5  87 CALM      30.66F

$$

INZ060-061-067>069-081>083-085>088-280900-
SOUTHWEST INDIANA

CITY           SKY/WX    TMP DP  RH WIND       PRES   REMARKS
EVANSVILLE     MOCLDY    19   5  54 N7        30.66R WCI  10
HUNTINGBURG *+ PTCLDY    18   7  62 NE7       30.65R WCI   8

$$

INZ062-063-066-070>080-084-089>092-280900-
SOUTH CENTRAL AND SOUTHEAST INDIANA

CITY           SKY/WX    TMP DP  RH WIND       PRES   REMARKS
BLOOMINGTON    MOCLDY     9  -1  64 CALM      30.64R
SEYMOUR +      PTCLDY     9   0  66 CALM      30.67S

$$




USA.gov is the U.S. government's official web portal to all federal, state and local government web resources and services.